DateTimeUTC,F1_A11,F1_S11,BsB_S11,BsG_S11,BsR_S11,BbsB_S11,BbsG_S11,BbsR_S11,BaB_A11,BaG_A11,BaR_A11,Tu_S11,T_S11,Uu_S11,U_S11,P_S11,T1_A11
2021-06-23T14:00:00Z,00000200,20000000,,,,,,,-000.14,0000.35,0000.15,19.8,26.2,02.5,01.7,0677.1,31.2
2021-06-23T14:01:00Z,00000200,20000000,,,,,,,0000.87,0000.37,0000.16,19.8,26.2,02.5,01.7,0677.1,31.2
2021-06-23T14:02:00Z,00000200,20000000,,,,,,,-000.21,-000.03,0000.10,19.8,26.2,02.5,01.7,0677.1,31.2
2021-06-23T14:03:00Z,00000200,60000000,,,,,,,0000.05,0000.23,-000.05,19.8,26.2,02.5,01.7,0677.1,31.2
2021-06-23T14:04:00Z,00000200,40000000,0000.98,0000.71,0000.18,0000.24,0000.21,-000.00,0001.02,0000.54,0000.59,19.8,26.0,02.5,01.8,0678.0,31.2
2021-06-23T14:05:00Z,00000200,00000000,0001.40,0000.73,0000.37,0000.54,0000.32,0000.28,0000.39,0000.28,0000.26,19.9,26.0,02.5,01.7,0678.1,31.2
2021-06-23T14:06:00Z,00000200,00000000,0001.92,0001.20,0000.18,0000.82,0000.38,0000.11,0000.68,0000.72,0000.29,19.9,25.9,02.5,01.7,0678.1,31.2
2021-06-23T14:07:00Z,00000200,00000000,0001.59,0000.73,0000.41,-000.05,0000.23,-000.07,0000.21,0000.47,0000.30,19.9,25.9,02.4,01.7,0678.1,31.1
2021-06-23T14:08:00Z,00000200,00000000,0000.64,0001.01,0000.13,0000.34,0000.09,0000.22,0000.21,-000.18,0000.23,19.9,25.9,02.7,01.8,0678.1,31.2
2021-06-23T14:09:00Z,00000200,00000000,0001.35,0001.14,0000.49,0000.54,0000.26,0000.00,-000.18,0000.08,-000.07,19.9,25.9,02.4,01.6,0678.1,31.2
2021-06-23T14:10:00Z,00000200,00000000,0001.19,0001.12,0000.58,0000.01,0000.31,-000.13,0000.70,0000.50,0000.55,19.8,25.9,02.2,01.5,0678.1,31.1
2021-06-23T14:11:00Z,00000200,00000000,0001.45,0001.11,0000.17,0000.34,0000.13,0000.19,0000.86,0000.88,0000.20,19.9,25.9,02.3,01.6,0678.1,31.2
2021-06-23T14:12:00Z,00000200,00000000,0001.21,0000.79,0000.24,0000.51,0000.00,0000.08,-000.08,-000.17,0000.13,19.8,25.9,02.6,01.8,0678.1,31.2
2021-06-23T14:13:00Z,00000200,00000000,0001.24,0000.73,0000.24,0000.46,-000.07,-000.17,0000.36,0000.27,0000.15,19.8,25.9,02.4,01.7,0678.1,31.2
2021-06-23T14:14:00Z,00000200,00000000,0001.64,0000.96,0000.19,0000.32,0000.32,0000.08,0000.78,0000.66,0000.82,19.9,25.9,02.6,01.8,0678.1,31.2
2021-06-23T14:15:00Z,00000200,00000000,0001.86,0000.95,0000.07,0000.47,0000.10,0000.13,0000.35,0000.48,0000.28,19.8,25.9,02.7,01.9,0678.2,31.2
2021-06-23T14:16:00Z,00000200,00000000,0001.46,0001.04,0000.21,0000.76,0000.22,0000.22,0000.01,-000.16,-000.16,19.8,25.9,02.9,02.0,0678.1,31.2
2021-06-23T14:17:00Z,00000200,00000000,0001.21,0001.17,0000.19,0000.12,0000.04,-000.15,0000.49,0000.50,0000.50,19.9,25.9,02.6,01.8,0678.1,31.2
2021-06-23T14:18:00Z,00000200,00000000,0001.57,0000.56,0000.41,0000.27,0000.20,-000.04,0000.23,0000.42,-000.08,19.8,25.9,02.8,02.0,0678.1,31.2
2021-06-23T14:19:00Z,00000200,00000000,0001.77,0001.22,0000.09,0000.56,0000.30,0000.24,0000.22,-000.44,-000.06,19.8,25.9,02.5,01.8,0678.1,31.2
2021-06-23T14:20:00Z,00000200,00000000,0001.49,0001.04,0000.44,0000.56,0000.22,-000.15,0000.04,0000.79,0000.22,19.8,25.9,02.5,01.7,0678.1,31.2
2021-06-23T14:21:00Z,00000200,00000000,0000.82,0000.80,0000.18,0001.06,0000.01,0000.05,0000.72,0000.19,0000.33,19.8,25.9,02.5,01.7,0678.1,31.2
2021-06-23T14:22:00Z,00000200,00000000,0001.27,0000.79,0000.36,-000.31,0000.16,0000.05,0000.26,0000.54,0000.22,19.8,25.9,02.6,01.8,0678.1,31.2
2021-06-23T14:23:00Z,00000200,00000000,0001.00,0000.94,0000.20,0000.43,-000.03,0000.12,0000.24,-000.27,0000.06,19.8,25.9,02.6,01.8,0678.1,31.2
2021-06-23T14:24:00Z,00000200,00000000,0002.26,0000.87,0000.63,0000.47,0000.10,0000.16,0000.28,0000.75,0000.34,19.8,25.8,02.6,01.8,0678.1,31.2
2021-06-23T14:25:00Z,00000200,00000000,0000.56,0001.08,-000.04,0000.11,0000.14,-000.11,0000.89,0000.61,0000.53,19.8,25.9,02.8,01.9,0678.0,31.2
2021-06-23T14:26:00Z,00000200,00000000,0001.65,0000.83,0000.40,0000.55,-000.17,-000.06,0000.32,-000.32,-000.04,19.8,25.9,02.8,01.9,0678.0,31.2
2021-06-23T14:27:00Z,00000200,00000000,0002.10,0001.11,0000.37,0000.30,0000.39,0000.24,0000.54,0001.01,0000.62,19.8,25.8,02.9,02.0,0678.1,31.2
2021-06-23T14:28:00Z,00000200,00000000,0001.83,0000.89,0000.40,0000.52,0000.31,-000.16,-000.03,-000.23,-000.29,19.8,25.9,03.2,02.2,0678.1,31.2
2021-06-23T14:29:00Z,00000200,00000000,0001.40,0000.85,0000.02,0000.34,0000.05,-000.26,0000.65,0000.33,0000.57,19.8,25.9,03.1,02.1,0678.0,31.2
2021-06-23T14:30:00Z,00000200,00000000,0000.90,0000.92,0000.00,0000.55,0000.03,0000.19,0000.30,0000.76,0000.43,19.8,25.9,03.0,02.1,0678.0,31.2
2021-06-23T14:31:00Z,00000200,00000000,0001.65,0000.88,0000.71,0000.15,-000.05,0000.34,0000.34,0000.15,-000.03,19.8,25.8,03.1,02.2,0678.0,31.2
2021-06-23T14:32:00Z,00000200,00000000,0001.51,0001.21,0000.13,0000.55,0000.09,-000.15,0000.38,0000.31,0000.56,19.8,25.8,03.3,02.3,0678.0,31.2
2021-06-23T14:33:00Z,00000200,00000000,0001.40,0000.69,0000.14,0000.28,0000.12,0000.07,0000.62,0000.18,0000.26,19.8,25.8,03.2,02.2,0678.0,31.2
2021-06-23T14:34:00Z,00000200,00000000,0001.69,0000.92,0000.42,0000.68,0000.07,-000.05,0000.13,0000.53,0000.18,19.8,25.8,03.4,02.4,0678.0,31.2
2021-06-23T14:35:00Z,00000200,00000000,0001.65,0000.91,0000.59,0000.27,0000.06,0000.15,0000.07,0000.28,-000.15,19.8,25.8,03.4,02.3,0678.0,31.2
2021-06-23T14:36:00Z,00000200,00000000,0001.68,0001.11,0000.36,0000.30,0000.00,0000.19,0000.53,0000.02,0000.35,19.8,25.8,03.2,02.2,0678.0,31.2
2021-06-23T14:37:00Z,00000200,00000000,0001.28,0000.88,0000.67,0000.52,0000.31,0000.18,0000.13,0000.70,0000.11,19.8,25.8,03.2,02.2,0678.0,31.2
2021-06-23T14:38:00Z,00000200,00000000,0000.98,0000.79,0000.50,0000.57,0000.26,0000.41,0000.33,-000.13,0000.19,19.8,25.8,03.1,02.1,0678.0,31.2
2021-06-23T14:39:00Z,00000200,00000000,0001.18,0000.86,0000.47,0000.19,0000.13,0000.01,0000.37,0000.23,0000.24,19.8,25.8,03.3,02.3,0678.0,31.2
2021-06-23T14:40:00Z,00000200,00000000,0001.40,0000.78,0000.35,0000.24,0000.50,-000.07,0000.51,0000.40,0000.37,19.8,25.8,03.2,02.2,0678.0,31.2
2021-06-23T14:41:00Z,00000200,00000000,0001.64,0000.93,0000.56,0000.90,0000.18,0000.11,0000.29,0000.22,0000.22,19.8,25.8,03.3,02.3,0678.0,31.2
2021-06-23T14:42:00Z,00000200,00000000,0001.62,0000.61,0000.31,0000.43,0000.05,0000.33,-000.02,0000.12,0000.11,19.8,25.8,03.4,02.4,0678.0,31.2
2021-06-23T14:43:00Z,00000200,00000000,0001.15,0001.03,0000.29,0000.40,-000.03,0000.02,0000.43,0000.46,0000.28,19.8,25.8,03.2,02.2,0678.0,31.2
2021-06-23T14:44:00Z,00000200,00000000,0001.22,0000.94,0000.48,0000.04,0000.00,0000.12,0000.40,0000.12,0000.18,19.8,25.8,03.3,02.3,0678.0,31.2
2021-06-23T14:45:00Z,00000200,00000000,0000.82,0000.69,0000.15,0000.32,0000.18,0000.16,0000.32,0000.37,0000.46,19.8,25.8,03.4,02.4,0678.0,31.2
2021-06-23T14:46:00Z,00000200,00000000,0001.47,0000.65,0000.27,0000.62,0000.10,0000.18,0000.42,0000.47,-000.03,19.8,25.8,03.5,02.4,0678.1,31.2
2021-06-23T14:47:00Z,00000200,00000000,0001.08,0000.66,0000.31,0000.65,0000.33,0000.08,0000.15,0000.01,0000.43,19.8,25.8,03.6,02.5,0678.1,31.2
2021-06-23T14:48:00Z,00000200,00000000,0000.87,0000.77,0000.34,0000.71,0000.08,0000.17,0000.25,0000.67,-000.09,19.8,25.8,03.6,02.5,0678.0,31.2
2021-06-23T14:49:00Z,00000200,00000000,0001.16,0000.50,0000.43,0000.35,0000.17,0000.36,0000.39,-000.37,0000.06,19.8,25.8,03.5,02.5,0678.0,31.2
2021-06-23T14:50:00Z,00000200,00000000,0001.18,0000.84,0000.14,-000.00,-000.07,0000.22,0000.38,0000.77,0000.13,19.8,25.8,03.4,02.4,0678.0,31.2
2021-06-23T14:51:00Z,00000200,00000000,0001.42,0000.74,0000.34,0000.60,0000.12,0000.39,0000.26,0000.11,0000.35,19.8,25.8,03.5,02.4,0678.0,31.2
2021-06-23T14:52:00Z,00000200,00000000,0001.55,0000.80,0000.22,0000.19,-000.17,0000.23,0000.27,0000.27,0000.38,19.8,25.8,03.4,02.4,0678.0,31.2
2021-06-23T14:53:00Z,00000200,00000000,0001.19,0000.82,0000.20,0000.77,0000.12,0000.09,0000.14,0000.11,0000.07,19.8,25.8,03.4,02.4,0678.0,31.2
2021-06-23T14:54:00Z,00000200,00000000,0000.98,0000.81,0000.22,0000.32,0000.23,0000.26,0000.47,0000.30,0000.08,19.8,25.8,03.4,02.4,0677.9,31.2
2021-06-23T14:55:00Z,00000200,00000000,0001.48,0000.52,0000.30,0000.36,0000.08,0000.12,0000.34,0000.38,0000.00,19.8,25.8,03.4,02.4,0677.9,31.2
2021-06-23T14:56:00Z,00000200,00000000,0000.87,0000.76,0000.37,0000.80,0000.35,0000.21,0000.19,0000.13,0000.51,19.8,25.8,03.5,02.4,0677.9,31.2
2021-06-23T14:57:00Z,00000200,40000000,,,,,,,0000.22,0000.11,0000.17,19.8,25.8,03.5,02.4,0677.9,31.2
2021-06-23T14:58:00Z,00000200,60000000,,,,,,,-000.28,-000.20,-000.10,19.6,25.9,03.3,02.2,0676.9,31.2
2021-06-23T14:59:00Z,00000200,20000000,,,,,,,-000.19,0000.25,-000.09,19.6,26.0,03.2,02.2,0676.9,31.2
